Hourly Data Report for June 20, 2015

All times are specified in Local Standard Time (LST). Add 1 hour to adjust for Daylight Saving Time where and when it is observed.

KELOWNA UBCO
BRITISH COLUMBIA

49°56'26.700" N
119°24'00.760" W
456.00 m
1123996
71644
VKU

Download Data

Hourly Data (June 2015)
Hourly Data Report for June 20, 2015
TIME Temp Definition
°C
Dew Point Definition
°C
Rel Hum Definition
%
Wind Dir Definition
10's deg

Wind Spd Definition
km/h
Visibility Definition
km
Stn Press Definition
kPa
Hmdx Definition


Wind Chill Definition


Weather Definition


00:00 12.5 0.9 45       96.46     LegendNANA
01:00 13.1 0.9 43       96.46     LegendNANA
02:00 10.1 2.1 57       96.50     LegendNANA
03:00 9.1 2.2 62       96.51     LegendNANA
04:00 8.1 2.5 68       96.51     LegendNANA
05:00 8.5 2.7 67       96.52     LegendNANA
06:00 10.9 3.7 61       96.53     LegendNANA
07:00 15.7 3.1 43       96.51     LegendNANA
08:00 16.9 3.5 41       96.47     LegendNANA
09:00 18.4 3.4 37       96.43     LegendNANA
10:00 18.4 4.2 39       96.37     LegendNANA
11:00 20.5 3.5 33       96.30     LegendNANA
12:00 21.0 2.2 29       96.24     LegendNANA
13:00 21.3 1.6 27       96.17     LegendNANA
14:00 21.9 2.6 28       96.12     LegendNANA
15:00 21.9 2.4 28       96.05     LegendNANA
16:00 21.5 3.3 30       96.00     LegendNANA
17:00 21.7 2.8 29       95.97     LegendNANA
18:00 19.4 6.8 44       96.04     LegendNANA
19:00 15.6 6.9 56       96.27     LegendNANA
20:00 14.7 5.9 55       96.33     LegendNANA
21:00 12.7 6.7 67       96.28     LegendNANA
22:00 13.0 7.4 69       96.28     LegendNANA
23:00 12.8 7.3 69       96.29     LegendNANA

Notes on Data Quality.

Legend

  • E = Estimated
  • M = Missing
  • NA = Not Available
Date modified: